Regional Weather Roundup
Issued by NWS

Home | Current Version | Previous Version | Text Only | Print | Product List | Glossary On
Versions: 1 2 3 4 5 6 7 8 9 10 11 12 13 14 15 16 17 18 19 20 21 22 23 24 25 26 27 28 29 30 31 32 33 34 35 36 37 38 39 40 41 42 43 44 45 46 47 48 49 50
000
ASUS43 KLMK 220910
RWRKY
KENTUCKY REGIONAL WEATHER ROUNDUP
NATIONAL WEATHER SERVICE LOUISVILLE KY
500 AM EDT FRI MAY 22 2015

NOTE "FAIR" INDICATES FEW OR NO CLOUDS BELOW 12,000 FEET
WITH NO SIGNIFICANT WEATHER AND/OR OBSTRUCTIONS TO VISIBILITY.

KYZ001>023-026-027-061>063-070>075-221000-
WESTERN AND SOUTH CENTRAL KENTUCKY

CITY           SKY/WX    TMP DP  RH WIND       PRES   REMARKS
PADUCAH        CLEAR     45  42  89 W6        30.24R
HENDERSON      CLEAR     46  43  87 SW5       30.21R
OWENSBORO      CLEAR     45  44  96 CALM      30.21R
HOPKINSVILLE   CLEAR     44  42  95 SW2       30.22R
BOWLING GREEN  CLEAR     43  40  89 CALM      30.23R
GLASGOW        CLEAR     40  40 100 CALM      30.22R FOG
$$

KYZ024-025-028>034-038-045-046-053-221000-
NORTH CENTRAL KENTUCKY

CITY           SKY/WX    TMP DP  RH WIND       PRES   REMARKS
LOUISVILLE/SDF CLEAR     50  44  80 SW7       30.19R
LOUISVILLE/LOU CLEAR     45  42  89 CALM      30.19R
FORT KNOX      CLEAR     42  40  96 SW2       30.18R FOG
$$

KYZ035>037-039>044-047>052-055>060-089>105-221000-
NORTHEAST KENTUCKY

CITY           SKY/WX    TMP DP  RH WIND       PRES   REMARKS
LEXINGTON      CLEAR     42  40  92 S6        30.19R
COVINGTON      CLEAR     44  41  89 SW6       30.15R
FRANKFORT      CLEAR     44  41  89 CALM      30.17R
$$

KYZ054-064>069-076>088-106>120-221000-
SOUTHEAST KENTUCKY

CITY           SKY/WX    TMP DP  RH WIND       PRES   REMARKS
JACKSON        FOG       45  44  97 CALM      30.18R VSB 1/4
LONDON         FOG       42  38  85 CALM      30.20R VSB 1/4
SOMERSET       CLEAR     41  41 100 CALM      30.23R FOG
MIDDLESBORO    CLEAR     44  44  99 CALM      30.20S
MONTICELLO     FOG       43  43 100 CALM      30.25R VSB<1/4
$$



USA.gov is the U.S. government's official web portal to all federal, state and local government web resources and services.